Regional Weather Roundup
Issued by NWS Grand Forks, ND

Home | Current Version | Previous Version | Graphics & Text | Print | Product List | Glossary On
Versions: 1 2 3 4 5 6 7 8 9 10 11 12 13 14 15 16 17 18 19 20 21 22 23 24 25 26 27 28 29 30 31 32 33 34 35 36 37 38 39 40 41 42 43 44 45 46 47 48 49 50
000
ASUS43 KFGF 021710
RWRFGF
PRAIRIE TO PINES  WEATHER ROUNDUP
NATIONAL WEATHER SERVICE EASTERN NORTH DAKOTA/GRAND FORKS ND
1100 AM CST MON MAR 02 2015

 **SATELLITE DATA USED TO AUGMENT SKY COVER AT AUTOMATED STATIONS**
 *****  WEATHER ACROSS EASTERN NORTH DAKOTA  *****

CITY           SKY/WX    TMP DP  RH WIND       PRES   REMARKS
GRAND FORKS    PTSUNNY   17   8  67 S13       30.24F WCI   4
GRAND FRKS AFB SUNNY     25  10  52 S16       30.22F WCI  12
GRAND FRKS NWS   N/A     18 N/A N/A S12         N/A  WCI   5
DEVILS LAKE    SUNNY     19  10  68 S15G21    30.11F WCI   5
FARGO          SUNNY     23  10  57 S15       30.30F WCI  10
WAHPETON ARPT  SUNNY     25   9  50 S16G29    30.33F WCI  12
$$

 ***** WEATHER ACROSS CENTRAL AND WESTERN NORTH DAKOTA  *****

CITY           SKY/WX    TMP DP  RH WIND       PRES   REMARKS
BISMARCK       SUNNY     25  14  63 S17       30.03F WCI  12
MINOT          SUNNY     20  11  68 SE21      29.95F WCI   4
JAMESTOWN      SUNNY     21  12  68 S23G32    30.15F WCI   5
MINOT AFB      SUNNY     20  14  78 S21       29.94F WCI   4
GARRISON         N/A     22  14  71 S16G23    29.95F WCI   8
WILLISTON      SUNNY     27  12  53 S17G24    29.84F WCI  14
DICKINSON      SUNNY     27  13  55 S24G31    29.85F WCI  12
HETTINGER      SUNNY     27  12  53 S16       29.89F WCI  15
$$

 *****  OTHER AIRPORT OBSERVATIONS IN OUR AREA  *****

CITY           SKY/WX    TMP DP  RH WIND       PRES   REMARKS
WALHALLA         N/A     19   9  63 S12G20    30.15F WCI   7
GRAFTON AIRPOR NOT AVBL
VALLEY CITY AR FLURRIES  18   9  68 S16       30.20F WCI   3
CANDO          FAIR      19  12  73 S16G23    30.07F WCI   5
CAVALIER APRT  FAIR      19  10  68 S12       30.18F WCI   7
GWINNER        SUNNY     27  12  54 S20       30.27F WCI  13
ROLLA          FAIR      16  12  86 S18G26    30.01F WCI  -1
 ***** THE ABOVE OBSERVATIONS ARE NON NWS ARE NOT QUALITY
       CONTROLLED AND MAY MIS-REPORT RAIN FOR SNOW...
$$

  *****  WEATHER ACROSS NORTHERN MINNESOTA  *****

CITY           SKY/WX    TMP DP  RH WIND       PRES   REMARKS
FLAG ISLAND    SUNNY      1  -2  85 S13       30.25F WCI -16
WARROAD        SUNNY     16  10  79 S5        30.26F WCI   9
ROSEAU         SUNNY     12   9  85 S14       30.25F WCI  -3
HALLOCK        NOT AVBL
THF RVR FALLS  SUNNY     10  10 100 S9        30.27F WCI  -2
BAUDETTE       SUNNY     15   7  70 S10       30.26F WCI   2
WASKISH        SUNNY     19  10  68 CALM      30.30F
CROOKSTON      SUNNY     18  10  73 S13       30.28F WCI   4
STEPHEN NDAWN    N/A     12   7  79 S16         N/A  WCI  -4
GREENBUSH NDAW   N/A     16  10  79 S15         N/A  WCI   1
$$
  *****  WEATHER ACROSS CENTRAL AND WEST MINNESOTA  *****

CITY           SKY/WX    TMP DP  RH WIND       PRES   REMARKS
FOSSTON        SUNNY     16   9  73 S13       30.29F WCI   2
BEMIDJI        SUNNY     20  11  66 SW12      30.29F WCI   8
PARK RAPIDS    SUNNY     20   8  60 SW12      30.31F WCI   8
ELBOW LAKE     FAIR      21  11  63 S17       30.34F WCI   7
WADENA         SUNNY     19   7  58 S12       30.33F WCI   7
DETROIT LAKES  SUNNY     21   9  58 S13       30.31F WCI   9
MOORHEAD       SUNNY     21  10  63 S16       30.31F WCI   7
FERGUS FALLS   SUNNY     21   9  58 S16       30.37F WCI   7
MORRIS MN      SUNNY     23  10  58 S21       30.35F WCI   8
STAPLES        SUNNY     21   5  49 CALM      30.35F
$$
  *****  WEATHER ELSEWHERE ACROSS MINNESOTA  *****

CITY           SKY/WX    TMP DP  RH WIND       PRES   REMARKS
DULUTH         SUNNY     20   8  60 SW14      30.36S WCI   7
INTRNTL FALLS  SUNNY     16   4  59 SW9       30.31R WCI   4
ELY            SUNNY     16   5  62 S9        30.33R WCI   4
CLOQUET        SUNNY     19   7  58 SW13      30.37F WCI   7
WHEATON        SUNNY     21   9  58 SE17G23   30.35F WCI   7
BRAINERD       SUNNY     21   7  54 SW12      30.37F WCI   9
HIBBING        SUNNY     19   7  59 W8G17     30.35S WCI   9
ALEXANDRIA     SUNNY     19   8  62 S15       30.35F WCI   5
SAINT CLOUD    SUNNY     21   8  57 S6        30.41F WCI  13
MINNEAPOLIS    MOSUNNY   21   6  52 S8        30.46F WCI  11
$$

  *****  WEATHER ACROSS SOUTH DAKOTA  *****

CITY           SKY/WX    TMP DP  RH WIND       PRES   REMARKS
SIOUX FALLS    CLOUDY    24  13  62 S14       30.36F WCI  12
BROOKINGS      NOT AVBL
WATERTOWN      SUNNY     19  11  70 S16       30.28F WCI   4
HURON          MOSUNNY   27  17  66 S23G31    30.26F WCI  12
SISSETON         N/A     26   8  46 S17       30.30  WCI  13
ABERDEEN       SUNNY     24  13  62 S25G33    30.24F WCI   8
MITCHELL       CLOUDY    30  14  51 SE22G30   30.29F WCI  17
PIERRE         MOSUNNY   34  14  43 SE18G28   30.07F WCI  23
MOBRIDGE       SUNNY     29  16  58 S24G33    30.02F WCI  15
RAPID CITY     MOSUNNY   36  22  56 S24G33    29.88F
$$

  *****  SOME WEATHER IN NEARBY STATES *****

CITY           SKY/WX    TMP DP  RH WIND       PRES   REMARKS
GLASGOW MT     SUNNY     26  11  52 S6        29.78F WCI  19
GREAT FALLS MT PTSUNNY   32  21  64 N17G25    29.87R WCI  21
CHEYENNE WY    CLOUDY    22  19  89 S8        29.86F FOG     WCI  12
SCOTTSBLUFF NE SUNNY     36  22  56 S21G26    29.95F
OMAHA NE       CLOUDY    30  18  60 SE10      30.44F WCI  21
DES MOINES IA  CLOUDY    28  12  51 SE7       30.49F WCI  21
DAVENPORT IA   MOSUNNY   20  11  68 NW3       30.53S
CHICAGO IL     MOSUNNY   27  10  49 CALM      30.52R
EAU CLAIRE WI  SUNNY     19   6  57 W6        30.49F WCI  11
LA CROSSE WI   SUNNY     23   8  52 W3        30.51F
$$

  *****  SOME NATIONAL WEATHER *****

CITY           SKY/WX    TMP DP  RH WIND       PRES   REMARKS
LA GUARDIA NY  MOSUNNY   35  15  44 NW25G33   30.15S WCI  23
RALEIGH NC     MOSUNNY   57  42  57 N7        30.25S
ATLANTA GA     PTSUNNY   58  50  75 W10       30.33S
NEW ORLEANS LA CLOUDY    73  68  84 S9        30.28S
OKLAHOMA CITY  CLOUDY    33  23  66 NE5       30.37F
ALBUQUERQUE NM PTSUNNY   41  31  67 N13       30.05F
SALT LAKE CITY CLOUDY    38  34  85 S6        29.76S
LOS ANGELES CA PTSUNNY   53  47  79 CALM      29.93R
BOISE ID       PTSUNNY   37  17  44 SE8       29.84F
SEATTLE WA     PTSUNNY   43  35  73 N12       30.03S
$$

*** WEATHER ACROSS MANITOBA...SASKATCHEWAN AND ONTARIO ***
                ***ONTARIO***

CITY           SKY/WX    TMP DP  RH WIND       PRES   REMARKS
GERALDTON      SUNNY     10  -8  44 SW10G17   30.24R WCI  -3
THUNDER BAY    SUNNY     16   0  48 SW9       30.36S WCI   4
SIOUX LOOKOUT  MOSUNNY   12  -2  52 SW9       30.23F WCI   0
TORONTO        PTSUNNY   27  12  54 W24G33    30.29R WCI  12
BIG TROUT LK   MOSUNNY    3  -8  60 SW7       30.05F WCI  -9
PICKLE LAKE    MOSUNNY   12  -8  40 W13       30.15S WCI  -3
DRYDEN         SUNNY     14   1  57 S9        30.23S WCI   2
KENORA         MOSUNNY   10   1  67 S14       30.22S WCI  -5
$$
                *** MANITOBA***

CITY           SKY/WX    TMP DP  RH WIND       PRES   REMARKS
BRANDON        CLOUDY     5   3  92 NE5       30.01F WCI  -4
DAUPHIN        SUNNY     21  10  63 SW20G26   29.91F WCI   6
ISLAND LAKE    CLOUDY    14   0  52 SW14G22   29.97F WCI  -1
PILOT MOUND    NOT AVBL
THE PAS        CLOUDY    18   7  62 S12       29.73F WCI   5
THOMPSON       CLOUDY    12   0  57 S7        29.71F WCI   2
WINNIPEG       PTSUNNY   10   3  72 S15       30.18F WCI  -6
LYNN LAKE      LGT SNOW  14  10  85 W8        29.58S WCI   3
CHURCHILL      PTSUNNY   -8 -18  59 E10       29.82F WCI -26
GILLAM         CLOUDY    12  -2  52 SW13G21   29.78F WCI  -3
$$
                ***SASKATCHEWAN***

CITY           SKY/WX    TMP DP  RH WIND       PRES   REMARKS
ESTEVAN        PTSUNNY   21  10  63 S15       29.84F WCI   8
KINDERSLEY     NOT AVBL
LLOYDMINSTER   FLURRIES  16  10  79 N20G33    29.91R WCI  -1
PRINCE ALBERT  CLOUDY    14   7  73 NW15      29.73S WCI  -1
REGINA         MOSUNNY   12   7  79 S16       29.75F WCI  -4
YORKTON        SUNNY     16   9  73 S14       29.79F WCI   1
N. BATTLEFORD  LGT SNOW  19  16  86 NW24G31   29.83R WCI   2
LA RONGE       LGT SNOW  14   9  79 NW21G30   29.76R BLWGSNOWWCI  -4
SASKATOON      CLOUDY    14   9  79 NW13      29.74R WCI   0
SWIFT CURRENT  SUNNY     19  14  79 NW20G25   29.71R WCI   4
$$
NOTE: THESE ARE AUTOMATED STATIONS WITH LIMITED QUALITY CONTROL
      "FAIR" INDICATES FEW OR NO CLOUDS BELOW 12,000 FEET WITH NO
      SIGNIFICANT WEATHER AND/OR OBSTRUCTIONS TO VISIBILITY.
      SKY/WX - SKY CONDITION AND SIGNIFICANT WEATHER.
      TMP - AIR TEMPERATURE.    DP   - DEWPOINT TEMPERATURE.
      RH  - RELATIVE HUMIDITY.  PRES - PRESSURE.
      HX  - HEAT INDEX.         WCI  - WIND CHILL INDEX.
$


USA.gov is the U.S. government's official web portal to all federal, state and local government web resources and services.